Wind_Speed
32 32 33 34 34 34 34 35 36 37 37 37 37 37 37 38 38 38 38 39 39 38 37 37 36 36 37 38 39 39 38 38 38 38 38 38 37 37 37 36 35 35 34
31 31 32 32 33 34 34 34 35 36 36 37 36 37 38 38 38 38 37 37 37 37 36 36 36 36 36 38 39 39 39 40 39 38 39 39 38 36 36 35 36 36 36
30 31 32 32 31 32 33 34 34 35 36 36 36 35 36 36 37 38 37 37 37 37 36 35 35 35 35 36 39 39 40 39 39 38 38 39 38 37 36 36 35 36 37
29 29 30 31 31 32 33 34 34 35 35 35 35 34 34 35 35 36 37 37 37 37 37 37 37 36 36 37 38 38 40 40 40 40 39 38 38 38 37 37 36 36 37
27 28 29 30 30 31 31 32 32 34 34 35 34 33 33 34 34 36 37 38 39 39 38 38 36 36 36 36 37 37 38 39 40 40 39 39 39 38 38 38 37 38 38
25 27 28 28 29 30 30 31 32 32 32 34 35 34 34 34 34 36 37 38 38 39 39 38 37 36 35 36 37 37 37 38 40 40 40 41 41 40 40 39 39 40 40
25 25 26 27 28 29 29 29 31 31 32 32 33 33 32 32 34 35 36 37 37 38 39 39 38 37 36 37 38 38 38 39 39 40 41 42 42 42 41 40 40 40 40
25 25 27 28 28 28 28 29 29 29 30 31 31 32 32 32 33 34 34 36 36 37 39 39 39 38 37 37 39 39 39 40 40 41 42 42 43 43 42 41 40 40 41
26 26 27 27 27 28 29 28 28 29 29 29 29 31 31 32 32 31 33 34 35 36 38 39 38 39 38 37 38 39 40 40 41 41 41 41 42 42 42 42 41 40 40
26 26 26 27 26 27 28 27 28 27 27 27 28 29 30 30 30 30 31 32 33 34 35 37 38 38 38 37 37 39 39 39 40 41 40 40 40 40 40 40 41 40 39
23 25 25 26 26 26 26 26 26 26 27 27 28 29 29 31 31 30 31 31 31 32 33 34 35 36 36 35 36 37 37 38 39 39 39 40 39 39 39 40 40 40 38
23 24 24 24 24 25 25 25 25 24 26 27 29 29 30 31 32 32 30 30 31 31 31 32 33 34 34 35 35 35 36 38 38 38 38 38 39 39 39 39 38 38 39
23 24 24 24 24 25 26 25 24 24 25 26 27 28 29 30 30 31 31 31 30 30 30 30 31 32 33 34 34 35 35 35 36 36 36 36 37 37 38 38 38 38 37
22 22 23 24 25 26 26 25 25 25 25 25 26 27 28 28 27 29 30 30 30 29 29 29 29 31 33 33 34 34 33 33 33 33 34 33 34 34 36 37 37 37 36
22 23 24 24 24 24 25 24 24 25 24 25 26 27 27 27 27 28 29 29 29 30 30 30 30 31 31 31 32 32 32 32 32 32 32 34 33 33 35 36 36 36 36
22 23 24 23 23 23 24 24 25 25 26 26 26 26 25 25 25 26 27 28 28 29 29 30 30 29 29 30 30 31 31 31 32 32 32 32 34 34 34 34 34 35 35
24 24 24 24 23 23 24 24 24 25 26 26 26 25 25 25 25 25 26 28 28 28 28 28 29 29 29 29 30 29 30 30 31 31 32 33 34 33 33 34 34 34 34
23 24 25 25 24 24 24 24 23 24 25 25 25 25 25 26 26 26 26 26 27 27 27 28 29 29 29 30 30 30 30 30 30 30 31 32 32 32 32 33 34 34 34
23 23 24 24 24 24 23 23 23 22 22 23 24 25 25 26 26 26 26 27 28 28 28 28 29 30 30 30 30 30 30 31 31 30 31 31 31 32 32 33 33 33 34
23 22 23 24 23 23 23 23 23 23 23 23 24 24 24 25 25 25 25 26 27 27 28 28 29 30 30 30 30 30 30 31 31 31 31 31 31 32 33 33 33 32 32
24 23 24 24 23 22 23 23 23 24 24 24 24 24 25 25 25 26 26 26 26 27 27 28 29 29 29 30 30 31 31 31 32 32 32 31 32 32 33 33 32 32 32
24 24 25 25 24 24 24 24 24 24 25 26 26 26 26 26 26 26 26 27 27 27 28 28 28 29 30 30 31 32 32 32 32 33 33 32 32 32 33 32 32 31 32
24 25 25 26 26 26 27 26 25 25 25 26 26 27 27 28 27 27 27 28 28 28 29 29 30 30 30 31 31 31 31 32 32 33 33 32 32 32 33 33 32 32 31
25 25 26 26 26 27 27 27 26 26 26 26 27 27 28 29 29 28 28 28 28 28 29 29 29 29 30 30 30 30 31 31 32 33 33 33 33 33 33 33 32 32 31
25 26 26 26 26 27 27 28 28 28 28 28 28 29 29 30 30 29 29 29 29 30 30 30 30 30 29 29 30 30 31 31 31 31 32 32 33 33 33 33 32 32 33
26 26 26 25 26 26 27 28 29 28 28 28 29 29 29 30 29 29 29 30 30 29 30 30 30 30 30 29 29 30 30 30 31 31 31 31 32 32 31 31 32 32 32
Wind_Direction
252 252 252 251 250 251 253 255 255 256 256 260 262 261 260 259 259 257 256 258 259 258 258 257 259 259 257 256 254 255 257 258 259 261 263 265 268 271 272 274 274 272 273
255 255 253 252 251 252 255 257 258 258 258 260 263 262 260 258 258 256 256 256 256 256 257 257 259 260 258 255 254 257 258 258 260 262 264 264 266 270 270 273 274 273 273
256 255 253 253 254 256 256 258 259 260 258 259 260 260 259 258 256 256 256 256 255 255 254 255 257 258 257 255 256 257 258 259 260 262 265 265 266 269 271 272 275 274 274
257 256 254 254 255 257 258 259 260 260 259 259 257 258 259 258 258 258 257 257 254 253 252 253 257 258 257 255 256 257 258 259 262 264 265 266 267 269 271 272 273 273 274
260 258 257 256 259 261 260 260 261 261 261 258 255 256 258 259 259 257 257 256 254 253 253 253 256 257 256 255 255 257 259 259 261 264 266 266 267 268 271 272 273 272 272
259 258 259 260 263 264 263 263 263 262 262 258 256 258 258 259 258 257 258 256 254 252 252 253 254 256 255 254 256 257 260 261 262 264 266 267 267 267 271 272 273 272 272
260 260 263 265 265 266 264 268 264 261 260 259 258 260 260 259 258 257 257 256 253 252 253 254 254 256 257 255 254 256 260 263 263 264 266 268 268 268 270 272 273 273 272
263 264 266 267 268 267 268 271 267 263 259 258 259 259 260 260 260 258 257 256 255 253 254 255 255 255 257 257 256 256 259 261 263 263 264 267 268 268 268 271 273 274 274
265 266 267 268 268 269 269 270 268 263 261 262 261 259 260 261 260 259 258 256 255 254 254 255 255 257 258 259 259 258 260 261 261 262 265 268 269 268 268 269 271 273 274
265 266 267 269 270 270 269 269 267 263 262 262 262 260 259 259 257 257 257 257 256 255 253 256 255 257 259 260 260 261 261 262 262 263 264 267 269 269 269 269 269 271 273
268 266 269 272 271 270 271 270 268 264 262 263 264 264 262 260 256 258 258 257 257 256 255 256 257 257 260 263 264 262 262 262 265 265 266 266 268 270 271 271 271 271 272
274 272 271 272 271 271 271 269 266 264 265 264 264 266 266 263 260 259 258 258 258 259 257 259 260 259 260 262 264 264 264 265 266 267 267 267 269 270 272 271 271 271 272
274 273 272 273 273 273 272 268 265 265 266 267 267 266 267 267 263 259 257 257 258 259 260 263 263 262 262 264 264 266 268 268 266 265 266 268 269 269 270 271 271 271 272
277 275 275 276 275 274 271 268 266 267 267 268 268 269 269 267 264 260 258 257 258 259 262 265 266 265 266 266 266 266 267 268 267 266 266 269 269 268 269 271 272 271 271
278 276 277 279 277 276 271 269 268 266 266 268 268 270 269 266 265 262 258 259 261 261 262 264 266 267 267 267 266 266 267 267 267 269 270 271 270 271 271 271 271 272 272
280 281 280 280 278 277 273 270 269 267 267 269 270 271 268 266 264 262 261 260 261 263 265 265 266 266 266 267 269 268 268 268 269 271 272 272 271 270 272 273 272 273 272
283 281 282 281 281 278 274 272 270 269 270 271 269 269 268 265 263 264 264 264 264 264 266 268 268 267 266 267 269 269 269 270 271 273 273 273 272 272 274 273 273 272 273
283 280 280 281 279 277 274 274 272 271 270 268 266 267 266 265 265 266 266 266 267 267 267 270 271 269 269 270 270 272 271 271 273 274 275 274 275 274 275 274 273 272 274
283 283 282 281 279 277 275 275 273 272 272 271 268 267 265 264 265 266 266 266 267 268 270 272 271 271 272 272 271 272 271 272 273 274 275 275 274 274 274 275 274 272 274
282 283 282 281 279 279 277 276 274 272 275 274 271 268 266 264 264 265 266 266 267 269 272 272 272 272 272 274 272 272 274 275 275 275 275 276 276 275 275 276 274 272 272
280 280 282 281 279 278 277 278 277 275 275 275 273 268 264 263 264 266 266 267 268 269 271 272 272 272 273 274 273 273 275 276 276 274 274 276 277 276 276 276 275 273 273
277 279 280 279 278 277 278 278 278 278 277 275 273 270 266 263 264 266 266 268 270 273 272 272 273 274 274 274 274 274 275 276 276 274 274 275 277 278 276 276 276 275 274
277 279 279 278 277 276 278 278 278 278 278 276 275 271 267 266 267 268 269 271 274 275 275 275 274 275 276 276 275 275 276 278 277 275 274 277 278 278 278 277 276 275 274
278 280 280 279 277 277 279 279 278 277 277 278 276 273 269 267 268 268 270 272 273 273 275 277 277 278 279 278 278 279 279 280 279 277 276 277 278 279 280 278 275 274 272
279 281 280 280 278 278 278 279 279 279 279 279 278 275 271 268 268 268 270 273 274 274 275 276 277 277 279 279 279 281 281 281 280 278 277 277 279 280 279 277 275 273 273
280 280 279 279 280 279 279 281 281 280 280 279 278 276 274 270 268 268 270 271 272 273 274 275 276 277 278 279 280 281 281 281 281 279 277 277 278 279 279 278 275 274 274
Height
5694 5696 5698 5700 5703 5705 5707 5708 5710 5712 5713 5715 5716 5717 5717 5719 5720 5721 5723 5724 5726 5728 5730 5732 5735 5737 5739 5741 5744 5746 5749 5751 5753 5755 5756 5757 5758 5759 5759 5759 5759 5759 5759
5687 5689 5691 5692 5695 5697 5699 5700 5701 5703 5704 5705 5706 5707 5708 5709 5711 5712 5713 5714 5716 5718 5721 5723 5726 5728 5730 5732 5734 5737 5739 5741 5743 5745 5747 5748 5750 5750 5751 5751 5751 5751 5751
5681 5682 5684 5685 5687 5689 5691 5692 5693 5694 5695 5696 5698 5698 5699 5699 5701 5702 5704 5706 5708 5710 5712 5715 5717 5719 5721 5723 5725 5727 5730 5733 5734 5735 5737 5738 5740 5741 5742 5742 5743 5742 5742
5673 5675 5677 5678 5680 5681 5682 5683 5684 5685 5686 5687 5688 5689 5690 5691 5692 5693 5695 5697 5699 5701 5704 5706 5708 5710 5712 5714 5717 5719 5721 5723 5725 5726 5727 5729 5730 5731 5733 5733 5733 5733 5733
5667 5669 5670 5671 5673 5673 5675 5675 5676 5676 5677 5678 5679 5681 5682 5682 5684 5685 5686 5688 5691 5693 5695 5697 5700 5701 5703 5705 5708 5710 5712 5714 5716 5717 5718 5719 5720 5721 5722 5724 5724 5724 5723
5662 5662 5663 5664 5666 5667 5667 5668 5668 5668 5669 5670 5671 5672 5673 5674 5675 5677 5678 5680 5682 5685 5687 5689 5691 5693 5695 5697 5699 5701 5702 5704 5705 5707 5708 5709 5710 5712 5712 5713 5714 5714 5714
5656 5657 5658 5658 5659 5660 5660 5660 5660 5660 5661 5662 5663 5664 5665 5666 5667 5669 5670 5672 5674 5677 5679 5681 5682 5684 5686 5688 5690 5692 5693 5694 5695 5697 5698 5699 5699 5701 5702 5702 5703 5703 5704
5651 5652 5652 5652 5652 5652 5653 5653 5652 5653 5653 5654 5656 5657 5657 5658 5659 5661 5662 5664 5666 5668 5670 5672 5674 5676 5677 5679 5680 5682 5683 5684 5686 5687 5688 5689 5689 5690 5691 5692 5692 5693 5694
5646 5646 5646 5646 5646 5646 5646 5645 5645 5646 5647 5648 5648 5650 5650 5651 5652 5653 5654 5656 5658 5660 5662 5664 5665 5667 5668 5670 5671 5672 5674 5675 5677 5677 5678 5678 5679 5680 5680 5681 5682 5683 5683
5639 5639 5640 5640 5640 5639 5639 5639 5639 5639 5640 5641 5641 5642 5644 5644 5645 5646 5647 5649 5650 5652 5654 5656 5657 5658 5660 5661 5662 5663 5665 5666 5667 5667 5668 5668 5669 5669 5670 5670 5671 5671 5672
5634 5634 5634 5634 5634 5633 5633 5633 5633 5634 5634 5635 5635 5636 5637 5637 5638 5639 5640 5641 5643 5644 5646 5648 5649 5650 5651 5652 5653 5655 5655 5656 5657 5657 5658 5659 5659 5659 5660 5660 5661 5661 5661
5628 5628 5628 5628 5628 5627 5627 5627 5628 5628 5628 5629 5629 5630 5630 5631 5632 5633 5634 5635 5636 5637 5639 5640 5641 5642 5643 5644 5645 5646 5647 5648 5648 5648 5649 5649 5650 5650 5650 5650 5650 5651 5651
5623 5622 5622 5622 5622 5621 5621 5621 5622 5622 5622 5622 5622 5623 5623 5624 5624 5625 5627 5628 5629 5630 5631 5632 5633 5634 5635 5636 5637 5638 5638 5639 5639 5639 5640 5640 5641 5641 5641 5641 5641 5641 5641
5618 5617 5617 5617 5616 5615 5615 5615 5616 5616 5616 5616 5616 5616 5616 5616 5617 5618 5619 5620 5622 5623 5624 5625 5625 5626 5626 5627 5629 5629 5630 5630 5631 5631 5631 5631 5632 5632 5632 5632 5631 5631 5632
5613 5612 5611 5611 5610 5610 5610 5610 5610 5610 5610 5610 5609 5609 5609 5609 5609 5610 5612 5613 5614 5615 5616 5617 5617 5618 5618 5619 5620 5621 5621 5622 5623 5623 5623 5623 5623 5622 5622 5622 5622 5622 5622
5608 5607 5606 5606 5605 5604 5604 5604 5603 5603 5603 5603 5602 5602 5602 5602 5603 5604 5605 5606 5607 5608 5609 5609 5610 5610 5611 5612 5612 5612 5613 5614 5614 5614 5614 5614 5614 5614 5613 5613 5612 5613 5613
5603 5602 5601 5600 5599 5598 5598 5597 5597 5597 5596 5595 5595 5595 5595 5595 5596 5597 5598 5599 5600 5600 5601 5602 5602 5603 5603 5604 5604 5604 5605 5605 5605 5605 5605 5605 5605 5604 5604 5604 5603 5603 5603
5597 5596 5595 5594 5593 5592 5591 5591 5590 5590 5589 5588 5588 5588 5588 5588 5589 5590 5591 5592 5592 5593 5594 5594 5595 5595 5596 5596 5596 5597 5597 5597 5596 5596 5596 5596 5596 5595 5595 5595 5594 5594 5594
5591 5590 5589 5588 5587 5586 5585 5584 5584 5583 5583 5582 5582 5581 5581 5582 5582 5583 5584 5584 5585 5586 5586 5587 5587 5587 5588 5588 5588 5588 5589 5588 5588 5588 5587 5587 5587 5586 5586 5586 5585 5585 5585
5585 5584 5583 5582 5581 5580 5579 5578 5577 5577 5576 5576 5575 5575 5575 5575 5575 5576 5577 5577 5578 5579 5579 5579 5579 5579 5580 5579 5580 5580 5580 5580 5580 5579 5579 5578 5577 5577 5576 5576 5576 5576 5576
5579 5578 5577 5576 5575 5574 5573 5572 5571 5570 5569 5569 5568 5568 5568 5568 5569 5569 5569 5570 5570 5571 5571 5571 5571 5571 5571 5571 5571 5571 5571 5571 5571 5570 5570 5569 5568 5568 5567 5567 5567 5567 5566
5573 5572 5571 5570 5569 5568 5567 5566 5565 5564 5563 5562 5561 5561 5561 5561 5561 5562 5562 5563 5563 5563 5563 5563 5563 5562 5562 5562 5562 5562 5562 5561 5561 5561 5560 5560 5559 5559 5558 5558 5558 5557 5557
5567 5566 5564 5563 5562 5561 5560 5559 5558 5557 5556 5555 5554 5553 5554 5554 5554 5554 5555 5555 5555 5555 5555 5555 5555 5554 5554 5553 5553 5552 5552 5551 5551 5551 5551 5550 5550 5550 5549 5549 5548 5548 5548
5560 5559 5558 5556 5556 5555 5553 5552 5551 5550 5549 5548 5547 5546 5546 5546 5546 5546 5547 5547 5547 5547 5547 5547 5546 5546 5545 5545 5544 5543 5543 5542 5541 5541 5541 5541 5541 5540 5539 5539 5539 5538 5539
5553 5551 5550 5549 5548 5547 5546 5545 5544 5543 5542 5540 5539 5538 5538 5538 5538 5538 5538 5538 5538 5538 5538 5538 5538 5537 5537 5536 5535 5534 5534 5533 5532 5532 5532 5531 5531 5531 5530 5529 5529 5529 5529
5545 5544 5543 5542 5541 5540 5538 5537 5536 5534 5533 5532 5531 5530 5530 5529 5529 5529 5530 5529 5530 5529 5529 5529 5529 5528 5528 5527 5526 5526 5525 5524 5523 5523 5522 5522 5522 5521 5521 5520 5520 5520 5520